Mount Airy, NC

10:58 PM EDT on September 18, 2019 (GMT -0400)
Mount Airy-Surry County

Weather History for KMWK - July, 2019

Change the Weather History Date:

Wednesday, July 10, 2019

  Actual Average (WUND) Record (WUND)
Temperature  
Mean Temperature 79 °F -  
Max Temperature 87 °F - - (-1)
Min Temperature 71 °F - - (-1)
Cooling Degree Days 14    
Growing Degree Days 29 (Base 50)    
Moisture  
Dew Point 72 °F    
Average Humidity 81    
Maximum Humidity 91    
Minimum Humidity 65    
Precipitation  
Precipitation 0.00 in - - ()
Sea Level Pressure  
Sea Level Pressure 30.10 in    
Wind  
Wind Speed 1 mph (SSE)    
Max Wind Speed 6 mph    
Max Gust Speed -    
Visibility 10 miles    
Events Rain    
Averages and records for this station are not official NWS values.
T = Trace of Precipitation, MM = Missing Value Source: NWS Daily Summary

Daily Weather History Graph

Daily Weather History Graph

Search for Another Location

Airport or City:

Astronomy

Jul. 10, 2019 Rise Set
Actual Time 6:12 AM EDT 8:42 PM EDT
Civil Twilight 5:42 AM EDT 9:12 PM EDT
Nautical Twilight 5:05 AM EDT 9:49 PM EDT
Astronomical Twilight 4:24 AM EDT 10:30 PM EDT
Moon 2:53 PM EDT (7/10) 1:43 AM EDT (7/10)
Length of Visible Light 15h 29m
Length of Day
14h 29m
Waxing Gibbous, 63% of the Moon is Illuminated
Jul 10
Waxing Gibbous
Jul 16
Full
Jul 24
Last Quarter
Jul 31
New
Aug 7
First Quarter

Hourly Weather History & Observations

Time (EDT) Temp. Heat Index Dew Point Humidity Pressure Visibility Wind Dir Wind Speed Gust Speed Precip Events Conditions
12:20 AM 73.0 °F - 70.0 °F 90% 30.13 in 10.0 mi Calm Calm - N/A   Clear
1:00 AM 72.3 °F - 69.3 °F 90% 30.13 in 10.0 mi Calm Calm - N/A   Clear
1:20 AM 71.8 °F - 68.9 °F 91% 30.13 in 10.0 mi Calm Calm - N/A   Scattered Clouds
1:40 AM 72.3 °F - 69.1 °F 89% 30.13 in 10.0 mi Calm Calm - N/A   Mostly Cloudy
2:00 AM 72.5 °F - 69.3 °F 90% 30.12 in 10.0 mi Calm Calm - N/A   Overcast
2:05 AM 72.0 °F - 68.9 °F 90% 30.13 in 10.0 mi Calm Calm - N/A   Overcast
2:35 AM 72.5 °F - 69.3 °F 90% 30.13 in 10.0 mi Calm Calm - N/A   Overcast
3:00 AM 72.5 °F - 69.3 °F 90% 30.12 in 10.0 mi Calm Calm - N/A   Overcast
3:05 AM 72.5 °F - 69.3 °F 90% 30.12 in 10.0 mi Calm Calm - N/A   Overcast
3:40 AM 72.3 °F - 69.3 °F 90% 30.12 in 10.0 mi Calm Calm - N/A   Mostly Cloudy
4:00 AM 71.1 °F - 68.2 °F 91% 30.12 in 10.0 mi Calm Calm - N/A   Mostly Cloudy
4:15 AM 71.2 °F - 68.4 °F 91% 30.12 in 10.0 mi Calm Calm - N/A   Mostly Cloudy
4:40 AM 71.6 °F - 68.7 °F 91% 30.12 in 10.0 mi Calm Calm - N/A   Overcast
5:00 AM 72.0 °F - 68.9 °F 90% 30.12 in 10.0 mi Calm Calm - N/A   Overcast
5:20 AM 72.5 °F - 69.4 °F 90% 30.12 in 10.0 mi Calm Calm - N/A   Overcast
5:40 AM 72.1 °F - 69.1 °F 90% 30.12 in 10.0 mi Calm Calm - N/A   Overcast
6:00 AM 71.6 °F - 68.5 °F 90% 30.13 in 10.0 mi Calm Calm - N/A   Overcast
6:15 AM 72.0 °F - 69.1 °F 91% 30.13 in 10.0 mi Calm Calm - N/A   Overcast
6:35 AM 72.3 °F - 69.3 °F 90% 30.13 in 10.0 mi Calm Calm - N/A   Overcast
7:00 AM 72.5 °F - 69.4 °F 90% 30.13 in 10.0 mi Calm Calm - N/A   Scattered Clouds
7:20 AM 72.9 °F - 69.8 °F 90% 30.14 in 10.0 mi Calm Calm - N/A   Scattered Clouds
7:30 AM 72.7 °F - 69.8 °F 91% 30.14 in 10.0 mi Calm Calm - N/A   Mostly Cloudy
8:00 AM 73.4 °F - 70.5 °F 91% 30.14 in 10.0 mi Calm Calm - N/A   Overcast
8:15 AM 74.3 °F - 71.1 °F 90% 30.14 in 10.0 mi Calm Calm - N/A   Overcast
8:40 AM 75.7 °F - 71.6 °F 87% 30.14 in 10.0 mi Calm Calm - N/A   Overcast
9:00 AM 77.4 °F - 72.3 °F 84% 30.15 in 10.0 mi Calm Calm - N/A   Mostly Cloudy
9:15 AM 77.7 °F - 71.8 °F 82% 30.14 in 10.0 mi Calm Calm - N/A   Scattered Clouds
10:00 AM 79.0 °F - 72.5 °F 80% 30.14 in 10.0 mi East 3.5 mph - N/A   Scattered Clouds
10:20 AM 78.6 °F - 72.5 °F 81% 30.14 in 10.0 mi SE 3.5 mph - N/A   Mostly Cloudy
10:40 AM 80.1 °F 84.4 °F 73.4 °F 80% 30.14 in 10.0 mi WSW 3.5 mph - N/A   Mostly Cloudy
11:00 AM 79.2 °F - 72.5 °F 80% 30.14 in 10.0 mi Calm Calm - N/A   Mostly Cloudy
11:15 AM 79.9 °F - 73.0 °F 80% 30.14 in 10.0 mi Calm Calm - N/A   Scattered Clouds
11:30 AM 79.9 °F - 72.9 °F 79% 30.14 in 10.0 mi Calm Calm - N/A   Scattered Clouds
12:00 PM 80.2 °F 84.7 °F 73.6 °F 80% 30.14 in 10.0 mi Calm Calm - N/A   Mostly Cloudy
12:20 PM 81.1 °F 86.4 °F 73.8 °F 78% 30.14 in 10.0 mi SE 3.5 mph - N/A   Mostly Cloudy
12:35 PM 82.6 °F 88.6 °F 73.4 °F 74% 30.14 in 10.0 mi Calm Calm - N/A   Scattered Clouds
1:00 PM 81.9 °F 88.0 °F 74.3 °F 78% 30.14 in 10.0 mi SSE 3.5 mph - N/A   Scattered Clouds
1:15 PM 82.6 °F 89.1 °F 74.5 °F 76% 30.14 in 10.0 mi Calm Calm - N/A   Scattered Clouds
1:35 PM 81.5 °F 87.2 °F 74.1 °F 78% 30.13 in 10.0 mi South 3.5 mph - N/A Rain Light Rain
2:00 PM 83.5 °F 90.6 °F 74.3 °F 74% 30.12 in 10.0 mi Calm Calm - N/A   Scattered Clouds
2:20 PM 84.4 °F 92.0 °F 74.7 °F 72% 30.11 in 10.0 mi West 4.6 mph - N/A   Clear
2:40 PM 84.2 °F 91.6 °F 74.3 °F 72% 30.10 in 10.0 mi SE 3.5 mph - N/A   Scattered Clouds
3:00 PM 85.8 °F 94.2 °F 74.5 °F 69% 30.10 in 10.0 mi SSE 5.8 mph - N/A   Scattered Clouds
3:20 PM 85.6 °F 93.0 °F 73.8 °F 67% 30.09 in 10.0 mi Calm Calm - N/A   Clear
3:40 PM 86.9 °F 95.0 °F 73.9 °F 65% 30.09 in 10.0 mi SW 4.6 mph - N/A   Scattered Clouds
4:00 PM 86.0 °F 94.2 °F 74.3 °F 68% 30.07 in 10.0 mi SSE 3.5 mph - N/A   Scattered Clouds
4:20 PM 87.3 °F 95.8 °F 74.3 °F 65% 30.07 in 10.0 mi SSE 3.5 mph - N/A   Scattered Clouds
4:40 PM 86.0 °F 94.2 °F 74.3 °F 68% 30.06 in 10.0 mi SSE 3.5 mph - N/A   Scattered Clouds
4:45 PM 86.5 °F 95.0 °F 74.5 °F 67% 30.06 in 10.0 mi South 3.5 mph - N/A   Scattered Clouds
5:10 PM 86.4 °F 93.8 °F 73.4 °F 65% 30.05 in 10.0 mi SSE 4.6 mph - N/A   Scattered Clouds
5:40 PM 86.9 °F 95.4 °F 74.1 °F 66% 30.05 in 10.0 mi Calm Calm - N/A   Clear
6:00 PM 86.4 °F 94.6 °F 74.3 °F 67% 30.05 in 10.0 mi SSW 3.5 mph - N/A   Clear
6:20 PM 86.5 °F 94.6 °F 73.8 °F 66% 30.04 in 10.0 mi South 4.6 mph - N/A   Clear
6:40 PM 86.0 °F 93.4 °F 73.4 °F 66% 30.05 in 10.0 mi Calm Calm - N/A   Clear
7:00 PM 85.3 °F 92.2 °F 73.2 °F 67% 30.04 in 10.0 mi Calm Calm - N/A   Clear
7:20 PM 85.3 °F 92.6 °F 73.8 °F 68% 30.04 in 10.0 mi Calm Calm - N/A   Clear
7:40 PM 85.1 °F 93.3 °F 74.8 °F 71% 30.04 in 10.0 mi SSE 3.5 mph - N/A   Clear
8:00 PM 84.2 °F 91.6 °F 74.5 °F 72% 30.04 in 10.0 mi SSE 3.5 mph - N/A   Clear
8:15 PM 83.1 °F 90.7 °F 75.2 °F 77% 30.05 in 10.0 mi SSE 3.5 mph - N/A   Scattered Clouds
8:40 PM 82.4 °F 89.5 °F 75.4 °F 79% 30.04 in 10.0 mi Calm Calm - N/A   Clear
9:00 PM 81.5 °F 87.8 °F 75.2 °F 81% 30.04 in 10.0 mi Calm Calm - N/A   Clear
9:20 PM 80.1 °F 84.8 °F 74.7 °F 83% 30.04 in 10.0 mi Calm Calm - N/A   Clear
9:40 PM 79.0 °F - 74.3 °F 85% 30.05 in 10.0 mi Calm Calm - N/A   Clear
9:55 PM 79.0 °F - 73.9 °F 84% 30.05 in 10.0 mi Calm Calm - N/A   Clear
10:20 PM 78.8 °F - 73.8 °F 84% 30.06 in 10.0 mi Calm Calm - N/A   Clear
10:40 PM 77.9 °F - 73.4 °F 86% 30.06 in 10.0 mi Calm Calm - N/A   Clear
11:00 PM 77.9 °F - 73.2 °F 85% 30.06 in 10.0 mi Calm Calm - N/A   Clear
11:20 PM 77.4 °F - 72.9 °F 86% 30.06 in 10.0 mi Calm Calm - N/A   Clear
11:55 PM 78.3 °F - 73.4 °F 85% 30.07 in 10.0 mi Calm Calm - N/A   Clear